Location: Knowlton
(51.2333°N, 1.2667°E)
Time: 09:31:54
(UTC+00:00)

Nadezhda 2 Rocket - Pass Details

Date: 18 April 2021
Orbit: 947 x 1011 km, 83.0° (Epoch: 05 May)

Event Time Altitude Azimuth Distance (km) Brightness Sun altitude
Rises 21:54:50 0° 349° (N) 3,716 8.7 -22.5°
Reaches altitude 10° 21:57:23 10° 349° (N) 2,754 7.8 -22.7°
Maximum altitude 22:03:42 85° 262° (W) 983 4.4 -23.2°
Enters shadow 22:05:45 46° 178° (S) 1,286 4.7 -23.3°
